Regional Weather Roundup
Issued by NWS

Home | Current Version | Previous Version | Graphics & Text | Print | Product List | Glossary On
Versions: 1 2 3 4 5 6 7 8 9 10 11 12 13 14 15 16 17 18 19 20 21 22 23 24 25 26 27 28 29 30 31 32 33 34 35 36 37 38 39 40 41 42 43 44 45 46 47 48 49 50
000
ASUS43 KLSX 250007
RWRMO

WEATHER SUMMARY FOR MISSOURI
NATIONAL WEATHER SERVICE SPRINGFIELD MO
700 PM CDT TUE MAY 24 2016

NOTE: "FAIR" INDICATES FEW OR NO CLOUDS BELOW 12,000 FEET WITH NO
       SIGNIFICANT WEATHER AND/OR OBSTRUCTIONS TO VISIBILITY.
       CURRENT SKY AND/OR WEATHER CONDITIONS ARE NOT AVAILABLE FOR
       CHILLICOTHE AND FARMINGTON.

MOZ001>031-035>038-043-044-053-054-250100-
...NORTHERN AND WESTERN MISSOURI...

CITY           SKY/WX    TMP DP  RH WIND       PRES   REMARKS
KANSAS CTY INT MOSUNNY   78  66  66 S7        29.90S
6HR MIN TEMP:  71; 6HR MAX TEMP:  79; 6HR PCP: TRACE;

KANSAS C DTWN  SUNNY     80  64  58 S7        29.89S
6HR MIN TEMP:  73; 6HR MAX TEMP:  81;

LEE`S SUMMIT   CLOUDY    78  64  61 S9        29.92R
6HR MIN TEMP:  70; 6HR MAX TEMP:  79;

ST JOSEPH      SUNNY     79  64  60 E8        29.88F
6HR MIN TEMP:  73; 6HR MAX TEMP:  80;

CHILLICOTHE      N/A     77  66  68 SE5       29.94R
6HR MIN TEMP:  75; 6HR MAX TEMP:  78;

KIRKSVILLE     MOSUNNY   75  66  73 SE7       29.97R
6HR MIN TEMP:  75; 6HR MAX TEMP:  77;


$$
MOZ066>068-077>081-088>096-101>105-250100-
...SOUTHWEST MISSOURI...

CITY           SKY/WX    TMP DP  RH WIND       PRES   REMARKS
SPRINGFIELD    MOSUNNY   67  61  81 S15       30.00R
6HR MIN TEMP:  64; 6HR MAX TEMP:  71; 6HR PCP:  0.12;

JOPLIN         CLOUDY    75  68  78 SE13G20   29.92S
6HR MIN TEMP:  66; 6HR MAX TEMP:  81;

BRANSON        PTSUNNY   63  63 100 SE12      30.03F

$$
MOZ032>034-039>042-045>050-055>058-069>072-250100-
...CENTRAL MISSOURI...

CITY           SKY/WX    TMP DP  RH WIND       PRES   REMARKS
COLUMBIA       CLOUDY    70  65  84 S6        29.98R
6HR MIN TEMP:  67; 6HR MAX TEMP:  71; 6HR PCP: TRACE;

JEFFERSON CITY CLOUDY    71  64  78 CALM      29.98R
6HR MIN TEMP:  67; 6HR MAX TEMP:  71; 6HR PCP:  0.02;

ROLLA          PTSUNNY   66  63  90 SW7       29.97R
6HR MIN TEMP:  64; 6HR MAX TEMP:  67; 6HR PCP:  0.37;

SEDALIA        MOSUNNY   75  64  68 S9        29.96R
6HR MIN TEMP:  68; 6HR MAX TEMP:  78;

WHITEMAN AFB   PTSUNNY   75  66  73 S10       29.93R
WARRENSBURG    SUNNY     75  64  69 SE8       29.92S

$$
MOZ051-052-059>065-250100-
...EAST CENTRAL MISSOURI...

CITY           SKY/WX    TMP DP  RH WIND       PRES   REMARKS
ST LOUIS INTL  CLOUDY    74  63  68 VRB6      29.95S
6HR MIN TEMP:  74; 6HR MAX TEMP:  87;

SPIRIT OF STL  CLOUDY    70  63  78 W7        29.96R
6HR MIN TEMP:  69; 6HR MAX TEMP:  82;

ST CHARLES     CLOUDY    74  61  63 SW3       29.95R
6HR MIN TEMP:  73; 6HR MAX TEMP:  84;


$$
MOZ072>076-082>087-097>100-106>115-250100-
...SOUTH CENTRAL AND SOUTHEAST MISSOURI...

CITY           SKY/WX    TMP DP  RH WIND       PRES   REMARKS
CAPE GIRARDEAU LGT RAIN  68  66  93 S7        30.03F
6HR MIN TEMP:  68; 6HR MAX TEMP:  82; 6HR PCP:  0.04;

FARMINGTON     CLOUDY    65  63  93 S10       29.98F
6HR MIN TEMP:  65; 6HR MAX TEMP:  77;

POPLAR BLUFF   RAIN      67  65  93 S9        30.07R FOG
6HR MIN TEMP:  66; 6HR MAX TEMP:  76; 6HR PCP:  0.53;

WEST PLAINS    CLOUDY    64  60  87 SE7       30.03F
6HR MIN TEMP:  64; 6HR MAX TEMP:  70; 6HR PCP:  0.85;


$$


USA.gov is the U.S. government's official web portal to all federal, state and local government web resources and services.